Tulsa, OK

3:07 AM CDT on March 23, 2017 (GMT -0500)
Tulsa International

Weather History for KTUL - January, 2013

Change the Weather History Date:

Wednesday, January 2, 2013

  Actual Average Record
Temperature  
Mean Temperature 28 °F 37 °F  
Max Temperature 39 °F 47 °F 76 °F (2004)
Min Temperature 17 °F 28 °F 2 °F (2001)
Degree Days  
Heating Degree Days 37 28  
Month to date heating degree days 73 56  
Since 1 July heating degree days 1325 1484  
Moisture  
Dew Point 22 °F    
Average Humidity 76    
Maximum Humidity 92    
Minimum Humidity 59    
Precipitation  
Precipitation 0.00 in 0.06 in 0.90 in (1951)
Month to date precipitation T 0.12  
Year to date precipitation T 0.12  
Sea Level Pressure  
Sea Level Pressure 30.29 in    
Wind  
Wind Speed 3 mph (WSW)    
Max Wind Speed 12 mph    
Max Gust Speed 16 mph    
Visibility 10 miles    
Events      
T = Trace of Precipitation, MM = Missing Value Source: NWS Daily Summary

Daily Weather History Graph

Daily Weather History Graph

Search for Another Location

Airport or City:

Trip Planner

Search our weather history database for the weather conditions in past years. The results will help you decide how hot, cold, wet, or windy it might be!

Date:

Astronomy

Jan. 02, 2013 Rise Set
Actual Time 7:34 AM CST 5:20 PM CST
Civil Twilight 7:06 AM CST 5:49 PM CST
Nautical Twilight 6:34 AM CST 6:21 PM CST
Astronomical Twilight 6:03 AM CST 6:52 PM CST
Moon 10:43 PM CST (1/2) 10:26 AM CST (1/2)
Length of Visible Light 10h 42m
Length of Day
9h 45m
Waning Gibbous, 75% of the Moon is Illuminated
Jan 2
Waning Gibbous
Jan 4
Last Quarter
Jan 11
New
Jan 18
First Quarter
Jan 26
Full

Hourly Weather History & Observations

Time (CST) Temp. Windchill Dew Point Humidity Pressure Visibility Wind Dir Wind Speed Gust Speed Precip Events Conditions
12:53 AM 19.0 °F 13.9 °F 17.1 °F 92% 30.32 in 10.0 mi NW 3.5 mph - N/A   Clear
1:53 AM 19.9 °F 13.4 °F 16.0 °F 85% 30.32 in 10.0 mi WNW 4.6 mph - N/A   Clear
2:53 AM 19.0 °F - 16.0 °F 88% 30.33 in 10.0 mi Calm Calm - N/A   Clear
3:53 AM 19.0 °F - 16.0 °F 88% 30.32 in 10.0 mi Calm Calm - N/A   Clear
4:53 AM 18.0 °F - 16.0 °F 92% 30.31 in 10.0 mi Calm Calm - N/A   Clear
5:53 AM 19.9 °F - 16.0 °F 85% 30.31 in 10.0 mi Calm Calm - N/A   Clear
6:53 AM 18.0 °F - 15.1 °F 88% 30.30 in 10.0 mi Calm Calm - N/A   Clear
7:53 AM 19.9 °F - 17.1 °F 89% 30.31 in 9.0 mi Calm Calm - N/A   Clear
8:53 AM 23.0 °F 18.4 °F 19.9 °F 88% 30.32 in 8.0 mi South 3.5 mph - N/A   Clear
9:53 AM 27.0 °F 21.6 °F 21.0 °F 78% 30.33 in 10.0 mi WSW 4.6 mph - N/A   Clear
10:53 AM 32.0 °F 24.8 °F 24.1 °F 73% 30.32 in 8.0 mi West 8.1 mph - N/A   Clear
11:53 AM 32.0 °F 26.4 °F 24.1 °F 73% 30.30 in 10.0 mi SW 5.8 mph - N/A   Partly Cloudy
12:53 PM 34.0 °F 27.2 °F 26.1 °F 73% 30.24 in 10.0 mi South 8.1 mph - N/A   Partly Cloudy
1:53 PM 37.0 °F 28.9 °F 25.0 °F 62% 30.23 in 10.0 mi WSW 12.7 mph - N/A   Partly Cloudy
2:53 PM 37.9 °F 34.4 °F 26.1 °F 62% 30.21 in 10.0 mi SSW 4.6 mph - N/A   Partly Cloudy
3:53 PM 37.9 °F 34.4 °F 27.0 °F 65% 30.23 in 10.0 mi South 4.6 mph - N/A   Partly Cloudy
4:53 PM 37.0 °F 33.3 °F 27.0 °F 67% 30.22 in 10.0 mi South 4.6 mph - N/A   Clear
5:53 PM 35.1 °F 31.0 °F 27.0 °F 72% 30.24 in 10.0 mi South 4.6 mph - N/A   Partly Cloudy
6:53 PM 36.0 °F - 27.0 °F 70% 30.26 in 10.0 mi Calm Calm - N/A   Mostly Cloudy
7:53 PM 35.1 °F - 26.1 °F 70% 30.28 in 10.0 mi Calm Calm - N/A   Partly Cloudy
8:53 PM 30.9 °F - 25.0 °F 79% 30.29 in 10.0 mi Calm Calm - N/A   Clear
9:53 PM 30.0 °F - 25.0 °F 82% 30.31 in 10.0 mi Calm Calm - N/A   Clear
10:53 PM 28.0 °F 21.7 °F 24.1 °F 85% 30.31 in 10.0 mi NW 5.8 mph - N/A   Clear
11:53 PM 26.1 °F 18.4 °F 23.0 °F 88% 30.32 in 10.0 mi NNW 6.9 mph - N/A   Clear